GIOVE-A 1 28922U 05051A 13143.36883117 .00000061 00000-0 00000+0 0 1003 2 28922 56.3494 119.4639 0006409 352.1438 146.1325 1.69429619 45901 GIOVE-B 1 32781U 08020A 13143.15577180 .00000106 00000-0 10000-3 0 7299 2 32781 56.8716 154.7138 0002928 236.2417 123.7820 1.65405363 31528 GALILEO-PFM (GSAT0101) 1 37846U 11060A 13142.45544892 .00000054 00000-0 00000+0 0 2258 2 37846 54.8885 113.5401 0004787 296.0706 207.2505 1.70474298 9865 GALILEO-FM2 (GSAT0102) 1 37847U 11060B 13144.07124821 .00000042 00000-0 00000+0 0 2285 2 37847 54.8900 113.4932 0005845 284.5145 171.0010 1.70474622 9890 GALILEO-FM3 (GSAT0103) 1 38857U 12055A 13142.26510664 -.00000004 00000-0 00000+0 0 934 2 38857 55.2324 233.3746 0003457 227.5113 132.5015 1.70473316 3789 GALILEO-FM4 (GSAT0104) 1 38858U 12055B 13142.78655124 -.00000002 00000-0 00000+0 0 874 2 38858 55.2328 233.3582 0002571 227.8629 132.1601 1.70473354 3782